Regional Weather Roundup
Issued by NWS Upton, NY

Current Version | Previous Version | Graphics & Text | Print | Product List | Glossary Off
Versions: 1 2 3 4 5 6 7 8 9 10 11 12 13 14 15 16 17 18 19 20 21 22 23 24 25 26 27

000
ASUS41 KOKX 271704
RWROKX

REGIONAL WEATHER ROUNDUP
NATIONAL WEATHER SERVICE NEW YORK NY
100 PM EDT WED APR 27 2016

NOTE: "FAIR" INDICATES FEW OR NO CLOUDS BELOW 12,000 FEET WITH NO
SIGNIFICANT WEATHER AND/OR OBSTRUCTIONS TO VISIBILITY.

NYZ071-072-176-178-NJZ106-104-271800-
NEW YORK CITY METRO AREA


CITY           SKY/WX    TMP DP  RH WIND       PRES   REMARKS
CENTRAL PARK   CLOUDY    56  39  53 CALM      29.94F
LAGUARDIA APRT PTSUNNY   56  38  50 CALM      29.91F
KENNEDY INTL   MOSUNNY   53  41  63 S10       29.94F
NEWARK/LIBERTY PTSUNNY   56  40  55 VRB3      29.92F
BRNX BOT. GARD   N/A     54  37  54 SE5       29.92S
TETERBORO      MOSUNNY   56  40  55 SW8       29.91F
$$

NYZ177-179-078>081-271800-
LONG ISLAND NEW YORK

CITY           SKY/WX    TMP DP  RH WIND       PRES   REMARKS
FARMINGDALE    SUNNY     54  41  61 S12       29.93S
ISLIP          MOSUNNY   53  40  61 SE8G16    29.92F
SHIRLEY        SUNNY     52  40  63 S9        29.94S
RIVERHEAD        N/A     54  28  37 NW2       29.92F
WESTHAMPTON    PTSUNNY   49  39  68 S9        29.96R
EAST HAMPTON   PTSUNNY   49  38  65 S7        29.94S
MONTAUK POINT    N/A     50  39  66 VRB5      29.95S
$$

NYZ052-065-067-271800-
HUDSON VALLEY

CITY           SKY/WX    TMP DP  RH WIND       PRES   REMARKS
WHITE PLAINS   MOSUNNY   56  30  37 SE9G16    29.90F
NEWBURGH       MOSUNNY   54  36  50 S7        29.91F
MONTGOMERY     SUNNY     56  35  45 S9        29.89F
POUGHKEEPSIE   SUNNY     57  28  33 CALM      29.90F
ALBANY         MOSUNNY   54  30  40 W12G22    29.91F
$$

NJZ001-105-106-008-010-013-015-019>022-104-271800-
NEW JERSEY

CITY           SKY/WX    TMP DP  RH WIND       PRES   REMARKS
NEWARK/LIBERTY PTSUNNY   56  40  55 VRB3      29.92F
TETERBORO      MOSUNNY   56  40  55 SW8       29.91F
CALDWELL       PTSUNNY   54  40  59 VRB3      29.92F
MORRISTOWN     CLOUDY    52  43  71 NW5       29.93F
SOMERVILLE     CLOUDY    53  42  66 S3        29.91F
SUSSEX         MOSUNNY   55  40  56 SE6       29.90F
ANDOVER          N/A     54  42  64 SW6       29.90F
TRENTON        CLOUDY    52  42  69 CALM      29.92F
MILLVILLE      CLOUDY    53  42  66 E6        29.91F
ATLANTIC CITY  CLOUDY    51  42  71 E12       29.92F
WRIGHTSTOWN    NOT AVBL
TOMS RIVER     CLOUDY    50  39  66 E5        29.94F
BELMAR         CLOUDY    48  41  76 E7        29.94F
$$

PAZ047>061-062-071-271800-
EASTERN PENNSYLVANIA

CITY           SKY/WX    TMP DP  RH WIND       PRES   REMARKS
PHILADELPHIA   CLOUDY    53  41  63 E6        29.94F
ALLENTOWN      CLOUDY    50  44  80 CALM      29.94S
SCRANTON       SUNNY     56  33  42 VRB3      29.90F
$$

CTZ002-004>006-009-010-012-RIZ004-006-007-MAZ004-011-015-271800-
SOUTHERN NEW ENGLAND
 IN CT

CITY           SKY/WX    TMP DP  RH WIND       PRES   REMARKS
BRADLEY INTL   MOSUNNY   57  29  34 N7        29.89F
HARTFORD       SUNNY     57  29  34 VRB3      29.90F
DANBURY        SUNNY     56  30  37 W6        29.91F
WTRBRY/OXFORD  SUNNY     54  28  37 NW6       29.90F
BRIDGEPORT     SUNNY     53  29  39 S12       29.92F
MERIDEN        SUNNY     59  26  28 CALM      29.89F
NEW HAVEN      MOSUNNY   51  37  58 S13       29.92S
CHESTER        FAIR      54  34  47 S8G16     29.90S
GROTON         SUNNY     51  39  63 SW12      29.91F
WILLIMANTIC    SUNNY     59  21  23 W10       29.89F

 IN RI

CITY           SKY/WX    TMP DP  RH WIND       PRES   REMARKS
PROVIDENCE     MOSUNNY   55  27  34 VRB5      29.90F
BLOCK ISLAND   SUNNY     48  38  68 SW13      29.94S
WESTERLY       SUNNY     50  33  52 S14       29.93S

 IN MA

CITY           SKY/WX    TMP DP  RH WIND       PRES   REMARKS
BOSTON         MOSUNNY   54  29  38 SE12      29.87F
WORCESTER      SUNNY     52  20  28 W10       29.87F
WESTFIELD      SUNNY     59  23  25 NW10      29.88F
PROVINCETOWN   SUNNY     50  32  50 VRB7      29.92S
NANTUCKET      MOSUNNY   49  37  63 S13       29.92F
$$

ANZ330-335-338-340-345-350-353-355-271800-
COASTAL MARINE OBSERVATIONS


STATION/POSITION TIME  SKY/WX   TEMP    WIND        PRES    VSBY  WAVE
                                AIR SEA DIR/SP/G                  HT/PER
                 (UTC)          (F)     (DEG/KT/KT) (MB)    (MI)  (FT/S)
NY HARB ENTRANCE 1550            47 52  120/  6/  8 1013.8          4/ 8
20S FIRE ISLAND  1550            45 49   90/  6/  8 1014.0          4/ 8
GREAT SOUTH BAY  NOT AVBL
23 SSW MONTAUK P 1650            44 48  160/  4/  6 1013.6          4/ 8
15 E BARNEGAT LI 1622               51                N/A           5/ 8
HUDSON CANYON    1550            46 49              1013.4          5/ 8
KINGS POINT      1600            51 53              1013.3
EXECUTION ROCKS  NOT AVBL
CENTRAL LI SOUND 1600            47     180/  8/ 10   N/A           0
EASTERN LI SOUND 1600            46 47  190/ 12/ 14   N/A
ROBBINS REEF     1600            51     250/  2/  2 1013.2
$$


>>>>>>>>>>>>>>>>>>>>>>>>>>>> KEY <<<<<<<<<<<<<<<<<<<<<<<<<<<
>                                                          <
>     SKY/WX - SKY CONDITION/PRESENT WEATHER               <
>     TMP    - TEMPERATURE IN FAHRENHEIT                   <
>     DP     - DEWPOINT IN FAHRENHEIT                      <
>     RH     - RELATIVE HUMIDITY IN PERCENT                <
>     WIND   - DIRECTION AND SPEED IN MPH                  <
>     PRES   - MEAN SEA LEVEL PRESSURE IN INCHES OF HG     <
>     WCI    - WIND CHILL INDEX                            <
>     VSB    - VISIBILITY IN MILES                         <
>     HX     - HEAT INDEX                                  <
>     TC     - TEMPERATURE IN CELSIUS                      <
>     VRB    - VARIABLE WIND DIRECTION                     <
>                                                          <
>>>>>>>>>>>>>>>>>>>>>>>>>>>> KEY <<<<<<<<<<<<<<<<<<<<<<<<<<<






USA.gov is the U.S. government's official web portal to all federal, state and local government web resources and services.